User: anonymous   Login
Location: Unspecified
(0.0000°N, 0.0000°E)
Time: 00:27:34
(UTC+02:00)
Language:

Delta 2 Rocket - Orbit

View from above orbital plane
View from above orbital plane
View from above satellite
View from above satellite

Ground track
Ground track

The orbit data is extracted from the following two-line orbital elements,

1 20453U 90008B   15214.52250733  .00005039  00000-0  30029-3 0  9995
2 20453 035.6276 283.3904 0304210 247.2140 109.6165 14.79328884346605
Epoch (UTC): 02 August 2015 12:32:24
Eccentricity: 0.0304210
inclination: 35.6276°
perigee height: 418 km
apogee height: 844 km
right ascension of ascending node: 283.3904°
argument of perigee: 247.2140°
revolutions per day: 14.79328884
mean anomaly at epoch: 109.6165°
orbit number at epoch: 34660

The dashed part of the orbit path shows where the satellite is in the earth's shadow,  

DLR